M I D A S
Marine Information and Data Acquisition System
Tripno 947 of the Zeeleeuw from 2005-07-07 06:26:53 to 2005-07-07 13:50:01
Back to CruiseResearch ActivitiesStationsMapUnderway DataData graphs

EquipmentUnitsComments
TimeDGPSUTC
LatitudeDGPSDM.mWGS84
LongitudeDGPSDM.mWGS84
SpeedMeteo Stationm/sRelative wind speed
DirectionMeteo StationdegRelative wind direction
TemperatureMeteo Stationdeg CelciusAir temperature
PressureMeteo StationPaAtmospheric pressure
HumidityMeteo Station%Relative humidity
Missing or incorrect values are displayed as -999
Metereological data collected by the RV Zeeleeuw from 2005-07-07 06:32:39 to 2005-07-07 14:01:09
                                                                                    Next 1000 lines
Time Latitude Longitude Speed Direction Temperature Pressure Humidity
2005-07-07 06:32:48 51°13.594 2°56.104 4 197 14.2 100520 93
2005-07-07 06:32:53 51°13.595 2°56.102 5 198 14.2 100510 93
2005-07-07 06:32:59 51°13.596 2°56.101 4.5 194 14.2 100510 93
2005-07-07 06:33:04 51°13.596 2°56.099 5.3 200 14.3 100520 93
2005-07-07 06:33:09 51°13.597 2°56.096 4.5 179 14.3 100520 93
2005-07-07 06:33:13 51°13.597 2°56.094 3.5 195 14.3 100520 94
2005-07-07 06:33:19 51°13.597 2°56.091 5 197 14.3 100520 94
2005-07-07 06:33:24 51°13.598 2°56.09 4.6 201 14.3 100520 93
2005-07-07 06:33:28 51°13.598 2°56.09 4.3 196 14.3 100520 93
2005-07-07 06:33:34 51°13.598 2°56.092 3.9 191 14.3 100520 94
2005-07-07 06:33:39 51°13.598 2°56.094 3.2 183 14.3 100520 94
2005-07-07 06:33:44 51°13.598 2°56.097 2.9 182 14.3 100520 94
2005-07-07 06:33:49 51°13.597 2°56.102 2.7 190 14.3 100520 94
2005-07-07 06:33:54 51°13.596 2°56.106 2.5 180 14.3 100510 93
2005-07-07 06:33:59 51°13.594 2°56.111 3 200 14.3 100510 93
2005-07-07 06:34:04 51°13.592 2°56.117 3.3 180 14.3 100520 93
2005-07-07 06:34:09 51°13.589 2°56.123 2.4 171 14.3 100520 93
2005-07-07 06:34:14 51°13.587 2°56.127 3.6 161 14.3 100520 93
2005-07-07 06:34:19 51°13.584 2°56.133 3.7 182 14.3 100520 93
2005-07-07 06:34:24 51°13.582 2°56.138 4.9 154 14.3 100520 93
2005-07-07 06:34:28 51°13.58 2°56.142 5.7 154 14.3 100520 93
2005-07-07 06:34:34 51°13.577 2°56.148 5 144 14.4 100510 93
2005-07-07 06:34:38 51°13.574 2°56.152 4.9 153 14.4 100510 93
2005-07-07 06:34:44 51°13.57 2°56.157 4.4 141 14.3 100520 93
2005-07-07 06:34:49 51°13.566 2°56.163 5.7 136 14.3 100520 93
2005-07-07 06:34:54 51°13.563 2°56.168 5.9 139 14.3 100510 93
2005-07-07 06:34:59 51°13.559 2°56.175 5.7 149 14.3 100510 93
2005-07-07 06:35:04 51°13.556 2°56.181 5.1 140 14.4 100510 93
2005-07-07 06:35:09 51°13.553 2°56.189 3.3 161 14.4 100510 93
2005-07-07 06:35:14 51°13.551 2°56.197 4.8 175 14.4 100510 93
2005-07-07 06:35:18 51°13.55 2°56.203 2.7 187 14.4 100510 93
2005-07-07 06:35:24 51°13.55 2°56.212 4.1 187 14.3 100510 93
2005-07-07 06:35:28 51°13.549 2°56.219 2.7 198 14.3 100510 93
2005-07-07 06:35:33 51°13.548 2°56.224 4.4 209 14.3 100510 93
2005-07-07 06:35:39 51°13.549 2°56.229 5.7 221 14.3 100510 93
2005-07-07 06:35:44 51°13.549 2°56.231 5.3 211 14.3 100510 93
2005-07-07 06:35:48 51°13.549 2°56.232 7.3 209 14.3 100510 93
2005-07-07 06:35:53 51°13.55 2°56.233 9.5 222 14.3 100520 93
2005-07-07 06:35:59 51°13.549 2°56.231 11.1 217 14.3 100520 93
2005-07-07 06:36:04 51°13.548 2°56.229 10.9 220 14.4 100520 93
2005-07-07 06:36:09 51°13.548 2°56.226 7.7 217 14.4 100520 93
2005-07-07 06:36:14 51°13.548 2°56.223 7.1 212 14.3 100520 93
2005-07-07 06:36:20 51°13.549 2°56.221 7.4 216 14.3 100520 93
2005-07-07 06:36:24 51°13.549 2°56.222 8.6 219 14.3 100520 93
2005-07-07 06:36:29 51°13.55 2°56.225 7.4 236 14.3 100520 93
2005-07-07 06:36:34 51°13.551 2°56.228 7.6 239 14.3 100520 92
2005-07-07 06:36:39 51°13.552 2°56.23 8.6 241 14.3 100520 92
2005-07-07 06:36:44 51°13.552 2°56.231 10.3 240 14.2 100520 92
2005-07-07 06:36:49 51°13.552 2°56.23 8.6 248 14.2 100520 92
2005-07-07 06:36:54 51°13.551 2°56.228 7.7 255 14.2 100510 92
2005-07-07 06:36:59 51°13.55 2°56.224 10.7 235 14.2 100510 92
2005-07-07 06:37:04 51°13.548 2°56.221 8.2 252 14.2 100520 92
2005-07-07 06:37:09 51°13.545 2°56.216 9.6 246 14.2 100520 92
2005-07-07 06:37:15 51°13.543 2°56.211 12 232 14.2 100520 92
2005-07-07 06:37:20 51°13.541 2°56.207 8.3 247 14.2 100520 92
2005-07-07 06:37:24 51°13.54 2°56.205 8.6 252 14.2 100510 92
2005-07-07 06:37:29 51°13.54 2°56.205 7.2 254 14.2 100510 92
2005-07-07 06:37:34 51°13.541 2°56.205 7.5 256 14.2 100510 92
2005-07-07 06:37:39 51°13.543 2°56.208 7.6 245 14.2 100510 92
2005-07-07 06:37:44 51°13.545 2°56.209 7.1 261 14.2 100530 92
2005-07-07 06:37:49 51°13.546 2°56.21 7.5 265 14.2 100530 92
2005-07-07 06:37:53 51°13.547 2°56.21 5.9 248 14.1 100520 92
2005-07-07 06:37:59 51°13.546 2°56.209 7.1 268 14.1 100520 92
2005-07-07 06:38:04 51°13.544 2°56.207 7.5 254 14.1 100510 92
2005-07-07 06:38:08 51°13.542 2°56.205 5.3 262 14.1 100510 92
2005-07-07 06:38:13 51°13.539 2°56.202 6.1 261 14.1 100500 92
2005-07-07 06:38:20 51°13.536 2°56.198 11.6 242 14.1 100500 92
2005-07-07 06:38:24 51°13.536 2°56.196 9 252 14.1 100510 93
2005-07-07 06:38:29 51°13.536 2°56.196 7.6 272 14.1 100510 93
2005-07-07 06:38:34 51°13.538 2°56.197 10.5 266 14.1 100520 92
2005-07-07 06:38:40 51°13.541 2°56.198 8.1 250 14.1 100520 92
2005-07-07 06:38:44 51°13.544 2°56.198 8.5 291 14.1 100530 92
2005-07-07 06:38:49 51°13.545 2°56.199 8.2 280 14.1 100530 92
2005-07-07 06:38:54 51°13.546 2°56.199 11.9 279 14.1 100530 92
2005-07-07 06:38:59 51°13.545 2°56.198 11.4 278 14.1 100530 92
2005-07-07 06:39:04 51°13.543 2°56.198 9 268 14.1 100520 92
2005-07-07 06:39:09 51°13.541 2°56.197 10.2 276 14.1 100520 92
2005-07-07 06:39:13 51°13.538 2°56.196 10.1 274 14.1 100500 93
2005-07-07 06:39:20 51°13.535 2°56.194 8.3 277 14.1 100500 93
2005-07-07 06:39:25 51°13.536 2°56.194 10.2 296 14.1 100520 93
2005-07-07 06:39:29 51°13.538 2°56.193 8 295 14.1 100520 93
2005-07-07 06:39:33 51°13.541 2°56.193 9.4 299 14.1 100530 92
2005-07-07 06:39:40 51°13.545 2°56.19 7.4 307 14.1 100530 92
2005-07-07 06:39:44 51°13.548 2°56.188 8.7 306 14.1 100510 92
2005-07-07 06:39:50 51°13.55 2°56.187 6 300 14.1 100510 92
2005-07-07 06:39:54 51°13.551 2°56.186 5.9 42 14.1 100500 93
2005-07-07 06:39:59 51°13.551 2°56.185 6.4 328 14.1 100500 93
2005-07-07 06:40:04 51°13.55 2°56.186 5.9 326 14.1 100510 93
2005-07-07 06:40:09 51°13.548 2°56.188 5.9 336 14.1 100510 93
2005-07-07 06:40:14 51°13.546 2°56.19 6.4 328 14.1 100510 93
2005-07-07 06:40:19 51°13.544 2°56.193 5.8 330 14.1 100510 93
2005-07-07 06:40:24 51°13.543 2°56.195 5.4 325 14.1 100510 93
2005-07-07 06:40:29 51°13.542 2°56.197 8.3 332 14.1 100510 93
2005-07-07 06:40:33 51°13.542 2°56.197 9.3 350 14.1 100510 93
2005-07-07 06:40:39 51°13.543 2°56.195 8.8 343 14.1 100510 93
2005-07-07 06:40:44 51°13.545 2°56.192 8.8 354 14.1 100510 93
2005-07-07 06:40:49 51°13.547 2°56.187 8.5 359 14.1 100510 93
2005-07-07 06:40:53 51°13.548 2°56.183 10.7 16 14.1 100500 93
2005-07-07 06:40:59 51°13.551 2°56.175 9.2 345 14.1 100500 93
2005-07-07 06:41:04 51°13.553 2°56.166 9.2 8 14.1 100490 93
2005-07-07 06:41:09 51°13.555 2°56.157 7.4 1 14.1 100490 93
2005-07-07 06:41:14 51°13.557 2°56.145 8.1 353 14.1 100500 93
2005-07-07 06:41:19 51°13.559 2°56.136 8.1 355 14.1 100500 93
2005-07-07 06:41:24 51°13.562 2°56.124 8.3 359 14.1 100500 93
2005-07-07 06:41:29 51°13.565 2°56.112 7.9 4 14.1 100500 93
2005-07-07 06:41:34 51°13.569 2°56.101 7.9 5 14.1 100500 93
2005-07-07 06:41:39 51°13.574 2°56.088 9.4 351 14.1 100500 93
2005-07-07 06:41:44 51°13.578 2°56.075 9.9 359 14.1 100500 93
2005-07-07 06:41:48 51°13.582 2°56.065 9.9 6 14.1 100500 93
2005-07-07 06:41:54 51°13.587 2°56.051 9 3 14.2 100500 93
2005-07-07 06:42:00 51°13.593 2°56.036 9.6 348 14.2 100500 93
2005-07-07 06:42:04 51°13.598 2°56.026 9.7 348 14.1 100500 93
2005-07-07 06:42:09 51°13.603 2°56.013 9.5 11 14.1 100500 93
2005-07-07 06:42:14 51°13.609 2°55.998 7.9 2 14.2 100500 93
2005-07-07 06:42:19 51°13.614 2°55.984 7.5 355 14.2 100500 93
2005-07-07 06:42:24 51°13.62 2°55.972 8.9 1 14.2 100500 93
2005-07-07 06:42:29 51°13.626 2°55.957 10.9 357 14.2 100500 93
2005-07-07 06:42:33 51°13.631 2°55.946 10.3 3 14.2 100500 93
2005-07-07 06:42:38 51°13.637 2°55.932 11 356 14.2 100500 93
2005-07-07 06:42:44 51°13.644 2°55.918 9.6 3 14.2 100510 93
2005-07-07 06:42:49 51°13.651 2°55.902 8.6 5 14.2 100510 93
2005-07-07 06:42:53 51°13.656 2°55.891 11 14 14.2 100500 93
2005-07-07 06:42:59 51°13.662 2°55.875 11.7 14 14.2 100500 93
2005-07-07 06:43:04 51°13.668 2°55.862 11.9 358 14.2 100500 93
2005-07-07 06:43:09 51°13.675 2°55.846 10.4 354 14.2 100500 93
2005-07-07 06:43:14 51°13.681 2°55.834 10.1 345 14.2 100500 93
2005-07-07 06:43:19 51°13.688 2°55.819 9.7 9 14.2 100500 93
2005-07-07 06:43:24 51°13.694 2°55.807 11.7 355 14.2 100490 93
2005-07-07 06:43:29 51°13.701 2°55.792 11.5 355 14.2 100490 93
2005-07-07 06:43:33 51°13.707 2°55.781 11 2 14.2 100490 93
2005-07-07 06:43:39 51°13.716 2°55.766 9.9 354 14.2 100490 93
2005-07-07 06:43:44 51°13.723 2°55.754 8.7 354 14.2 100500 93
2005-07-07 06:43:48 51°13.729 2°55.743 8.6 9 14.2 100500 93
2005-07-07 06:43:53 51°13.737 2°55.731 7.2 16 14.2 100490 93
2005-07-07 06:43:59 51°13.747 2°55.716 8.9 351 14.2 100490 93
2005-07-07 06:44:04 51°13.755 2°55.705 9.2 354 14.2 100490 93
2005-07-07 06:44:09 51°13.765 2°55.693 9.4 352 14.2 100490 93
2005-07-07 06:44:13 51°13.771 2°55.686 8.7 345 14.2 100500 93
2005-07-07 06:44:19 51°13.782 2°55.674 6 349 14.2 100500 93
2005-07-07 06:44:24 51°13.792 2°55.665 6.5 360 14.3 100500 93
2005-07-07 06:44:29 51°13.802 2°55.655 5.9 342 14.3 100500 93
2005-07-07 06:44:33 51°13.81 2°55.648 8.1 8 14.2 100500 93
2005-07-07 06:44:39 51°13.821 2°55.64 6 11 14.2 100500 93
2005-07-07 06:44:44 51°13.831 2°55.632 7.9 359 14.3 100490 93
2005-07-07 06:44:49 51°13.842 2°55.624 7 342 14.3 100490 93
2005-07-07 06:44:53 51°13.851 2°55.618 6.6 10 14.3 100500 93
2005-07-07 06:44:59 51°13.862 2°55.609 8.4 4 14.3 100500 93
2005-07-07 06:45:04 51°13.872 2°55.601 9.5 2 14.3 100500 93
2005-07-07 06:45:09 51°13.882 2°55.593 8.9 344 14.3 100500 93
2005-07-07 06:45:13 51°13.892 2°55.586 7.8 348 14.3 100490 93
2005-07-07 06:45:19 51°13.904 2°55.577 10.2 329 14.3 100490 93
2005-07-07 06:45:24 51°13.914 2°55.57 9.3 343 14.3 100500 93
2005-07-07 06:45:29 51°13.926 2°55.562 9.6 339 14.3 100500 93
2005-07-07 06:45:34 51°13.935 2°55.555 11.8 338 14.3 100490 93
2005-07-07 06:45:39 51°13.947 2°55.547 10.5 345 14.3 100490 93
2005-07-07 06:45:44 51°13.957 2°55.539 9.9 345 14.3 100490 93
2005-07-07 06:45:49 51°13.968 2°55.532 11.4 334 14.3 100490 93
2005-07-07 06:45:53 51°13.977 2°55.526 8.4 333 14.3 100500 93
2005-07-07 06:45:59 51°13.99 2°55.517 8 353 14.3 100500 93
2005-07-07 06:46:04 51°14 2°55.51 8.7 336 14.3 100480 93
2005-07-07 06:46:08 51°14.008 2°55.505 10.8 339 14.3 100480 93
2005-07-07 06:46:13 51°14.02 2°55.497 10 337 14.3 100490 93
2005-07-07 06:46:19 51°14.033 2°55.488 8.5 319 14.3 100490 93
2005-07-07 06:46:24 51°14.043 2°55.481 9.2 351 14.3 100500 93
2005-07-07 06:46:28 51°14.052 2°55.474 11.6 345 14.3 100500 93
2005-07-07 06:46:33 51°14.065 2°55.465 13.9 342 14.4 100500 93
2005-07-07 06:46:39 51°14.079 2°55.455 13.6 340 14.4 100500 93
2005-07-07 06:46:44 51°14.089 2°55.447 14.9 336 14.4 100500 93
2005-07-07 06:46:48 51°14.099 2°55.44 13.9 338 14.4 100500 93
2005-07-07 06:46:53 51°14.113 2°55.43 13.9 332 14.4 100480 93
2005-07-07 06:46:59 51°14.126 2°55.42 14.6 336 14.4 100480 93
2005-07-07 06:47:04 51°14.139 2°55.41 14.3 336 14.4 100480 93
2005-07-07 06:47:09 51°14.151 2°55.4 14.6 344 14.4 100480 93
2005-07-07 06:47:14 51°14.163 2°55.388 13.5 347 14.4 100470 93
2005-07-07 06:47:19 51°14.175 2°55.376 12.2 348 14.4 100470 93
2005-07-07 06:47:24 51°14.187 2°55.363 13.9 350 14.4 100460 93
2005-07-07 06:47:29 51°14.199 2°55.349 14.7 346 14.4 100460 93
2005-07-07 06:47:34 51°14.21 2°55.335 14.5 354 14.4 100470 93
2005-07-07 06:47:39 51°14.222 2°55.319 13.4 360 14.4 100470 93
2005-07-07 06:47:44 51°14.232 2°55.305 15.1 3 14.4 100480 94
2005-07-07 06:47:49 51°14.243 2°55.287 14.1 345 14.4 100480 94
2005-07-07 06:47:53 51°14.252 2°55.274 14.9 355 14.4 100480 94
2005-07-07 06:47:59 51°14.264 2°55.253 15.9 352 14.4 100480 94
2005-07-07 06:48:04 51°14.273 2°55.238 17.2 359 14.5 100470 94
2005-07-07 06:48:08 51°14.28 2°55.223 17.5 359 14.5 100470 94
2005-07-07 06:48:14 51°14.291 2°55.203 15.9 357 14.5 100470 94
2005-07-07 06:48:19 51°14.302 2°55.184 16.7 2 14.5 100470 94
2005-07-07 06:48:24 51°14.31 2°55.168 16.4 1 14.5 100470 94
2005-07-07 06:48:29 51°14.32 2°55.151 16.5 354 14.5 100470 94
2005-07-07 06:48:33 51°14.328 2°55.135 17 356 14.4 100480 94
2005-07-07 06:48:39 51°14.339 2°55.116 17.2 359 14.4 100480 94
2005-07-07 06:48:44 51°14.348 2°55.098 17.4 358 14.4 100460 94
2005-07-07 06:48:49 51°14.359 2°55.079 16 356 14.4 100460 94
2005-07-07 06:48:54 51°14.368 2°55.063 17 358 14.4 100450 94
2005-07-07 06:49:00 51°14.38 2°55.042 16.7 356 14.4 100450 94
2005-07-07 06:49:04 51°14.39 2°55.025 16.5 358 14.4 100460 93
2005-07-07 06:49:09 51°14.4 2°55.006 17.4 354 14.4 100460 93
2005-07-07 06:49:13 51°14.408 2°54.992 17.2 351 14.4 100460 93
2005-07-07 06:49:19 51°14.421 2°54.973 17.7 346 14.4 100460 93
2005-07-07 06:49:24 51°14.433 2°54.957 16.6 347 14.4 100460 93
2005-07-07 06:49:29 51°14.447 2°54.939 18.9 347 14.4 100460 93
2005-07-07 06:49:34 51°14.459 2°54.925 18.8 346 14.4 100450 93
2005-07-07 06:49:39 51°14.473 2°54.908 16.4 344 14.4 100450 93
2005-07-07 06:49:44 51°14.485 2°54.895 16.2 348 14.4 100440 93
2005-07-07 06:49:48 51°14.498 2°54.883 16.6 350 14.4 100440 93
2005-07-07 06:49:52 51°14.509 2°54.874 18 345 14.4 100450 93
2005-07-07 06:49:59 51°14.531 2°54.855 17.2 346 14.4 100450 93
2005-07-07 06:50:04 51°14.545 2°54.844 16.9 346 14.4 100430 93
2005-07-07 06:50:09 51°14.562 2°54.83 17.1 348 14.4 100430 93
2005-07-07 06:50:13 51°14.574 2°54.82 18.7 347 14.5 100430 93
2005-07-07 06:50:19 51°14.594 2°54.806 17.6 345 14.5 100430 93
2005-07-07 06:50:24 51°14.608 2°54.794 17.4 344 14.5 100440 94
2005-07-07 06:50:29 51°14.624 2°54.782 16.9 342 14.5 100440 94
2005-07-07 06:50:34 51°14.638 2°54.77 15.3 341 14.5 100430 94
2005-07-07 06:50:39 51°14.654 2°54.76 18.3 334 14.5 100430 94
2005-07-07 06:50:45 51°14.672 2°54.745 17.9 339 14.5 100430 93
2005-07-07 06:50:49 51°14.684 2°54.736 16 338 14.5 100430 93
2005-07-07 06:50:53 51°14.698 2°54.726 16.1 342 14.5 100430 93
2005-07-07 06:50:59 51°14.714 2°54.713 18.5 346 14.5 100430 93
2005-07-07 06:51:04 51°14.729 2°54.702 18.4 346 14.5 100430 93
2005-07-07 06:51:09 51°14.744 2°54.689 18.4 340 14.5 100430 93
2005-07-07 06:51:13 51°14.758 2°54.677 17.8 340 14.5 100430 93
2005-07-07 06:51:19 51°14.775 2°54.662 18.5 336 14.5 100430 93
2005-07-07 06:51:24 51°14.792 2°54.647 16.8 338 14.5 100430 93
2005-07-07 06:51:29 51°14.807 2°54.634 16.9 343 14.5 100430 93
2005-07-07 06:51:34 51°14.821 2°54.622 16.3 342 14.6 100440 93
2005-07-07 06:51:39 51°14.835 2°54.609 18.7 346 14.6 100440 93
2005-07-07 06:51:44 51°14.851 2°54.597 15.5 344 14.6 100430 93
2005-07-07 06:51:49 51°14.867 2°54.583 16.7 344 14.6 100430 93
2005-07-07 06:51:55 51°14.884 2°54.568 17.8 346 14.6 100430 94
2005-07-07 06:51:59 51°14.898 2°54.556 15.3 346 14.6 100430 94
2005-07-07 06:52:04 51°14.911 2°54.545 17 345 14.6 100430 94
2005-07-07 06:52:08 51°14.924 2°54.535 18.8 342 14.6 100430 94
2005-07-07 06:52:14 51°14.941 2°54.522 19 345 14.6 100430 94
2005-07-07 06:52:20 51°14.958 2°54.508 16.8 345 14.6 100430 94
2005-07-07 06:52:24 51°14.97 2°54.498 16.5 340 14.6 100440 94
2005-07-07 06:52:29 51°14.985 2°54.486 16.1 344 14.6 100440 94
2005-07-07 06:52:33 51°14.998 2°54.475 16.6 345 14.6 100450 93
2005-07-07 06:52:39 51°15.014 2°54.461 18.9 343 14.6 100450 93
2005-07-07 06:52:44 51°15.029 2°54.449 17 342 14.6 100430 93
2005-07-07 06:52:49 51°15.045 2°54.434 17.8 339 14.6 100430 93
2005-07-07 06:52:54 51°15.06 2°54.421 15.9 346 14.6 100430 93
2005-07-07 06:52:59 51°15.075 2°54.409 15 347 14.6 100430 93
2005-07-07 06:53:04 51°15.088 2°54.397 15.9 350 14.6 100430 93
2005-07-07 06:53:09 51°15.102 2°54.384 16.8 342 14.6 100430 93
2005-07-07 06:53:13 51°15.116 2°54.372 17.3 347 14.6 100440 93
2005-07-07 06:53:19 51°15.133 2°54.358 16.4 345 14.6 100440 93
2005-07-07 06:53:24 51°15.148 2°54.346 15.2 346 14.6 100440 94
2005-07-07 06:53:29 51°15.165 2°54.332 16.3 344 14.6 100440 94
2005-07-07 06:53:33 51°15.177 2°54.322 16.5 343 14.6 100440 94
2005-07-07 06:53:39 51°15.194 2°54.307 16.1 344 14.6 100440 94
2005-07-07 06:53:44 51°15.211 2°54.291 18.6 345 14.6 100440 94
2005-07-07 06:53:49 51°15.226 2°54.279 16.2 342 14.6 100440 94
2005-07-07 06:53:54 51°15.241 2°54.267 17.1 342 14.6 100440 94
2005-07-07 06:53:59 51°15.255 2°54.255 18.3 340 14.6 100440 94
2005-07-07 06:54:04 51°15.271 2°54.243 20 344 14.7 100440 94
2005-07-07 06:54:09 51°15.287 2°54.23 15.3 345 14.7 100440 94
2005-07-07 06:54:14 51°15.303 2°54.219 16.1 344 14.7 100440 94
2005-07-07 06:54:19 51°15.317 2°54.205 16.1 342 14.7 100440 94
2005-07-07 06:54:24 51°15.331 2°54.194 16.2 343 14.7 100440 94
2005-07-07 06:54:29 51°15.346 2°54.18 15.7 344 14.7 100440 94
2005-07-07 06:54:34 51°15.361 2°54.166 13.1 344 14.6 100440 94
2005-07-07 06:54:39 51°15.377 2°54.152 16.5 344 14.6 100440 94
2005-07-07 06:54:44 51°15.391 2°54.139 16 344 14.6 100440 94
2005-07-07 06:54:49 51°15.408 2°54.125 15.5 -999 14.6 100440 94
2005-07-07 06:54:55 51°15.424 2°54.11 16 350 14.7 100470 94
2005-07-07 06:54:59 51°15.436 2°54.099 18.5 348 14.7 100470 94
2005-07-07 06:55:04 51°15.45 2°54.087 18 347 14.7 100460 94
2005-07-07 06:55:09 51°15.468 2°54.071 16.8 347 14.7 100460 94
2005-07-07 06:55:13 51°15.48 2°54.06 16.9 344 14.7 100450 94
2005-07-07 06:55:19 51°15.498 2°54.043 16.1 349 14.7 100450 94
2005-07-07 06:55:24 51°15.511 2°54.031 17.7 349 14.7 100470 94
2005-07-07 06:55:29 51°15.528 2°54.016 15.8 349 14.7 100470 94
2005-07-07 06:55:34 51°15.542 2°54.004 16.8 345 14.6 100450 93
2005-07-07 06:55:39 51°15.559 2°53.989 15.9 341 14.6 100450 93
2005-07-07 06:55:44 51°15.572 2°53.976 16.9 346 14.6 100440 93
2005-07-07 06:55:49 51°15.59 2°53.961 15.3 351 14.6 100440 93
2005-07-07 06:55:53 51°15.601 2°53.949 16.2 343 14.6 100450 93
2005-07-07 06:55:59 51°15.62 2°53.934 16.9 348 14.6 100450 93
2005-07-07 06:56:04 51°15.633 2°53.921 16.6 346 14.6 100450 93
2005-07-07 06:56:09 51°15.649 2°53.908 17.1 340 14.6 100450 93
2005-07-07 06:56:13 51°15.662 2°53.895 15.2 345 14.6 100450 94
2005-07-07 06:56:19 51°15.68 2°53.881 15.9 342 14.6 100450 94
2005-07-07 06:56:24 51°15.694 2°53.867 16.7 345 14.7 100430 94
2005-07-07 06:56:29 51°15.711 2°53.852 15.3 342 14.7 100430 94
2005-07-07 06:56:34 51°15.726 2°53.838 17.9 344 14.6 100440 94
2005-07-07 06:56:39 51°15.739 2°53.826 16.9 345 14.6 100440 94
2005-07-07 06:56:44 51°15.755 2°53.811 17.6 340 14.6 100440 94
2005-07-07 06:56:49 51°15.771 2°53.796 16.9 340 14.6 100440 94
2005-07-07 06:56:53 51°15.782 2°53.787 16.8 338 14.6 100430 94
2005-07-07 06:56:59 51°15.8 2°53.769 15.9 341 14.6 100430 94
2005-07-07 06:57:04 51°15.815 2°53.755 16.3 342 14.6 100440 94
2005-07-07 06:57:09 51°15.83 2°53.742 17.5 343 14.6 100440 94
2005-07-07 06:57:14 51°15.847 2°53.726 17.5 339 14.6 100430 94
2005-07-07 06:57:18 51°15.859 2°53.716 15.6 334 14.6 100430 94
2005-07-07 06:57:24 51°15.876 2°53.7 15.2 337 14.6 100430 94
2005-07-07 06:57:29 51°15.892 2°53.687 16 337 14.6 100430 94
2005-07-07 06:57:34 51°15.905 2°53.675 14 340 14.6 100440 94
2005-07-07 06:57:39 51°15.921 2°53.66 16.2 337 14.6 100440 94
2005-07-07 06:57:44 51°15.935 2°53.648 17.3 340 14.6 100440 94
2005-07-07 06:57:49 51°15.95 2°53.634 16.2 336 14.6 100440 94
2005-07-07 06:57:54 51°15.965 2°53.62 16 336 14.6 100440 94
2005-07-07 06:58:00 51°15.982 2°53.605 15.5 344 14.6 100440 94
2005-07-07 06:58:04 51°15.993 2°53.593 15 341 14.6 100450 94
2005-07-07 06:58:09 51°16.01 2°53.578 16 346 14.6 100450 94
2005-07-07 06:58:13 51°16.022 2°53.566 15.1 343 14.6 100440 94
2005-07-07 06:58:19 51°16.041 2°53.55 14.5 341 14.6 100440 94
2005-07-07 06:58:24 51°16.056 2°53.536 13.7 341 14.6 100440 94
2005-07-07 06:58:29 51°16.072 2°53.524 15.3 343 14.6 100440 94
2005-07-07 06:58:33 51°16.083 2°53.516 16 339 14.7 100450 94
2005-07-07 06:58:39 51°16.103 2°53.5 14.2 339 14.7 100450 94
2005-07-07 06:58:44 51°16.117 2°53.489 14.4 345 14.7 100440 94
2005-07-07 06:58:49 51°16.134 2°53.477 14.1 342 14.7 100440 94
2005-07-07 06:58:53 51°16.147 2°53.468 16.2 339 14.6 100450 94
2005-07-07 06:58:59 51°16.165 2°53.454 16.3 341 14.6 100450 94
2005-07-07 06:59:04 51°16.181 2°53.442 15.3 338 14.7 100450 94
2005-07-07 06:59:09 51°16.198 2°53.428 14.8 341 14.7 100450 94
2005-07-07 06:59:13 51°16.211 2°53.417 14.1 340 14.7 100450 94
2005-07-07 06:59:19 51°16.23 2°53.401 14.7 344 14.7 100450 94
2005-07-07 06:59:24 51°16.244 2°53.39 14.8 341 14.7 100440 94
2005-07-07 06:59:29 51°16.261 2°53.376 16.5 342 14.7 100440 94
2005-07-07 06:59:34 51°16.277 2°53.362 14.8 342 14.7 100440 94
2005-07-07 06:59:39 51°16.293 2°53.349 17.3 345 14.7 100440 94
2005-07-07 06:59:44 51°16.307 2°53.337 15.4 342 14.7 100440 94
2005-07-07 06:59:49 51°16.324 2°53.322 17.2 337 14.7 100440 94
2005-07-07 06:59:54 51°16.338 2°53.31 16.6 338 14.7 100430 94
2005-07-07 07:00:00 51°16.358 2°53.295 16.4 343 14.7 100430 94
2005-07-07 07:00:04 51°16.371 2°53.285 17.5 344 14.7 100440 94
2005-07-07 07:00:09 51°16.387 2°53.272 14.8 334 14.7 100440 94
2005-07-07 07:00:13 51°16.4 2°53.261 14.2 338 14.7 100440 94
2005-07-07 07:00:19 51°16.416 2°53.247 15.9 337 14.7 100440 94
2005-07-07 07:00:24 51°16.431 2°53.233 14.1 341 14.6 100440 94
2005-07-07 07:00:29 51°16.446 2°53.222 16 346 14.6 100440 94
2005-07-07 07:00:33 51°16.461 2°53.212 14.5 338 14.6 100450 94
2005-07-07 07:00:39 51°16.479 2°53.197 16.3 340 14.6 100450 94
2005-07-07 07:00:44 51°16.493 2°53.186 15.5 345 14.7 100440 94
2005-07-07 07:00:49 51°16.51 2°53.172 15.6 340 14.7 100440 94
2005-07-07 07:00:54 51°16.523 2°53.159 15.7 346 14.7 100430 94
2005-07-07 07:00:59 51°16.54 2°53.144 15.2 345 14.7 100430 94
2005-07-07 07:01:04 51°16.554 2°53.131 15.6 343 14.7 100440 94
2005-07-07 07:01:09 51°16.571 2°53.116 15.3 348 14.7 100440 94
2005-07-07 07:01:14 51°16.584 2°53.103 15.4 349 14.7 100440 94
2005-07-07 07:01:19 51°16.6 2°53.091 17.2 350 14.7 100440 94
2005-07-07 07:01:24 51°16.616 2°53.075 17.1 347 14.7 100450 94
2005-07-07 07:01:29 51°16.632 2°53.061 15.2 345 14.7 100450 94
2005-07-07 07:01:34 51°16.645 2°53.049 13.9 345 14.7 100450 94
2005-07-07 07:01:39 51°16.662 2°53.035 16.9 342 14.7 100450 94
2005-07-07 07:01:44 51°16.677 2°53.021 16.7 351 14.7 100440 94
2005-07-07 07:01:49 51°16.692 2°53.009 14.6 348 14.7 100440 94
2005-07-07 07:01:54 51°16.705 2°52.996 15.4 348 14.7 100440 94
2005-07-07 07:02:00 51°16.723 2°52.981 16.1 348 14.7 100440 94
2005-07-07 07:02:04 51°16.734 2°52.97 14.8 349 14.7 100450 94
2005-07-07 07:02:09 51°16.75 2°52.957 16.5 349 14.7 100450 94
2005-07-07 07:02:13 51°16.763 2°52.945 16 348 14.7 100450 94
2005-07-07 07:02:19 51°16.782 2°52.929 14.8 347 14.7 100450 94
2005-07-07 07:02:24 51°16.795 2°52.917 13.9 342 14.7 100440 94
2005-07-07 07:02:29 51°16.812 2°52.902 14.3 342 14.7 100440 94
2005-07-07 07:02:33 51°16.824 2°52.891 14.8 349 14.6 100450 93
2005-07-07 07:02:39 51°16.842 2°52.875 15.6 349 14.6 100450 93
2005-07-07 07:02:44 51°16.855 2°52.863 15.5 349 14.6 100450 93
2005-07-07 07:02:49 51°16.87 2°52.85 15.9 347 14.6 100450 93
2005-07-07 07:02:54 51°16.887 2°52.835 15.2 349 14.6 100450 93
2005-07-07 07:02:59 51°16.902 2°52.822 15.7 348 14.6 100450 93
2005-07-07 07:03:04 51°16.916 2°52.81 15.3 350 14.7 100450 93
2005-07-07 07:03:09 51°16.931 2°52.795 13.6 348 14.7 100450 93
2005-07-07 07:03:14 51°16.947 2°52.781 14.8 349 14.7 100450 93
2005-07-07 07:03:19 51°16.962 2°52.767 13.9 346 14.7 100450 93
2005-07-07 07:03:24 51°16.975 2°52.755 15.7 345 14.7 100450 93
2005-07-07 07:03:29 51°16.993 2°52.74 15.2 346 14.7 100450 93
2005-07-07 07:03:33 51°17.005 2°52.729 15.4 347 14.7 100450 93
2005-07-07 07:03:39 51°17.023 2°52.713 16.2 347 14.7 100450 93
2005-07-07 07:03:44 51°17.037 2°52.7 15.7 351 14.7 100450 93
2005-07-07 07:03:49 51°17.054 2°52.685 15.6 348 14.7 100450 93
2005-07-07 07:03:54 51°17.069 2°52.671 15.1 348 14.7 100450 93
2005-07-07 07:03:59 51°17.085 2°52.657 16.5 347 14.7 100450 93
2005-07-07 07:04:04 51°17.098 2°52.644 16.3 345 14.7 100450 93
2005-07-07 07:04:09 51°17.115 2°52.631 14.8 346 14.7 100450 93
2005-07-07 07:04:13 51°17.127 2°52.62 14.7 341 14.7 100450 93
2005-07-07 07:04:19 51°17.145 2°52.604 14.2 344 14.7 100450 93
2005-07-07 07:04:24 51°17.158 2°52.593 12.7 342 14.6 100440 93
2005-07-07 07:04:29 51°17.175 2°52.58 17.5 344 14.6 100440 93
2005-07-07 07:04:34 51°17.189 2°52.568 14.7 344 14.7 100480 92
2005-07-07 07:04:40 51°17.207 2°52.554 17.5 343 14.7 100480 92
2005-07-07 07:04:45 51°17.22 2°52.543 15.7 347 14.7 100440 92
2005-07-07 07:04:49 51°17.233 2°52.532 13.4 341 14.7 100440 92
2005-07-07 07:04:53 51°17.245 2°52.522 15 340 14.7 100450 92
2005-07-07 07:04:59 51°17.261 2°52.507 14.6 344 14.7 100450 92
2005-07-07 07:05:04 51°17.276 2°52.494 14.7 342 14.7 100450 92
2005-07-07 07:05:09 51°17.292 2°52.479 13.6 341 14.7 100450 92
2005-07-07 07:05:14 51°17.305 2°52.466 14.4 341 14.7 100450 92
2005-07-07 07:05:19 51°17.322 2°52.451 14.1 344 14.7 100450 92
2005-07-07 07:05:24 51°17.335 2°52.44 13.6 347 14.7 100440 92
2005-07-07 07:05:29 51°17.352 2°52.424 13.5 345 14.7 100440 92
2005-07-07 07:05:33 51°17.364 2°52.415 14 343 14.6 100450 91
2005-07-07 07:05:39 51°17.382 2°52.399 13.7 349 14.6 100450 91
2005-07-07 07:05:44 51°17.396 2°52.387 15 352 14.6 100450 91
2005-07-07 07:05:49 51°17.413 2°52.372 13.4 352 14.6 100450 91
2005-07-07 07:05:54 51°17.426 2°52.359 14.4 354 14.7 100460 92
2005-07-07 07:05:59 51°17.443 2°52.343 13.2 350 14.7 100460 92
2005-07-07 07:06:04 51°17.457 2°52.331 13.8 347 14.7 100450 92
2005-07-07 07:06:09 51°17.473 2°52.316 12.9 349 14.7 100450 92
2005-07-07 07:06:14 51°17.487 2°52.302 13.8 349 14.7 100460 92
2005-07-07 07:06:19 51°17.503 2°52.287 14.1 347 14.7 100460 92
2005-07-07 07:06:24 51°17.517 2°52.274 13.8 354 14.8 100460 92
2005-07-07 07:06:29 51°17.532 2°52.26 14.3 354 14.8 100460 92
2005-07-07 07:06:34 51°17.547 2°52.246 13.8 349 14.8 100460 92
2005-07-07 07:06:39 51°17.564 2°52.231 13.3 352 14.8 100460 92
2005-07-07 07:06:44 51°17.578 2°52.219 12.6 353 14.8 100450 92
2005-07-07 07:06:49 51°17.595 2°52.204 14.5 345 14.8 100450 92
2005-07-07 07:06:53 51°17.608 2°52.195 12.9 341 14.8 100450 92
2005-07-07 07:06:59 51°17.627 2°52.183 14 346 14.8 100450 92
2005-07-07 07:07:04 51°17.643 2°52.175 14.6 346 14.8 100470 91
2005-07-07 07:07:09 51°17.66 2°52.167 12.6 343 14.8 100470 91
2005-07-07 07:07:13 51°17.673 2°52.162 12 347 14.7 100460 91
2005-07-07 07:07:19 51°17.693 2°52.152 14 341 14.7 100460 91
2005-07-07 07:07:24 51°17.707 2°52.147 11.8 347 14.8 100450 91
2005-07-07 07:07:29 51°17.726 2°52.138 14.7 341 14.8 100450 91
2005-07-07 07:07:34 51°17.742 2°52.135 15 339 14.7 100450 91
2005-07-07 07:07:39 51°17.759 2°52.129 13.8 337 14.7 100450 91
2005-07-07 07:07:44 51°17.774 2°52.128 13.9 337 14.7 100460 90
2005-07-07 07:07:49 51°17.792 2°52.123 12.9 335 14.7 100460 90
2005-07-07 07:07:53 51°17.805 2°52.121 13.7 337 14.7 100450 90
2005-07-07 07:07:59 51°17.825 2°52.118 14.1 334 14.7 100450 90
2005-07-07 07:08:04 51°17.842 2°52.116 13.8 330 14.7 100440 90
2005-07-07 07:08:09 51°17.859 2°52.117 11.8 334 14.7 100440 90
2005-07-07 07:08:13 51°17.872 2°52.116 12.4 324 14.8 100440 90
2005-07-07 07:08:19 51°17.892 2°52.119 12.4 329 14.8 100440 90
2005-07-07 07:08:24 51°17.909 2°52.116 13 327 14.7 100450 90
2005-07-07 07:08:29 51°17.925 2°52.12 12 324 14.7 100450 90
2005-07-07 07:08:34 51°17.94 2°52.119 11.7 326 14.8 100450 90
2005-07-07 07:08:39 51°17.96 2°52.123 15.5 332 14.8 100450 90
2005-07-07 07:08:44 51°17.975 2°52.123 14.2 336 14.8 100460 90
2005-07-07 07:08:49 51°17.993 2°52.13 13.7 338 14.8 100460 90
2005-07-07 07:08:54 51°18.011 2°52.125 12.9 328 14.8 100450 90
2005-07-07 07:08:59 51°18.026 2°52.13 12.9 336 14.8 100450 90
2005-07-07 07:09:04 51°18.041 2°52.129 12.2 326 14.8 100450 90
2005-07-07 07:09:09 51°18.06 2°52.133 11.9 336 14.8 100450 90
2005-07-07 07:09:14 51°18.075 2°52.132 12.2 330 14.8 100460 89
2005-07-07 07:09:20 51°18.096 2°52.135 12.8 339 14.8 100460 89
2005-07-07 07:09:24 51°18.109 2°52.136 12.4 337 14.8 100460 89
2005-07-07 07:09:30 51°18.129 2°52.135 12.4 334 14.8 100460 89
2005-07-07 07:09:34 51°18.143 2°52.138 12.7 338 14.8 100470 89
2005-07-07 07:09:39 51°18.159 2°52.136 11.6 329 14.8 100470 89
2005-07-07 07:09:44 51°18.176 2°52.137 11.8 330 14.8 100450 89
2005-07-07 07:09:49 51°18.193 2°52.139 11.4 333 14.8 100450 89
2005-07-07 07:09:53 51°18.207 2°52.139 11.4 334 14.8 100460 89
2005-07-07 07:09:59 51°18.227 2°52.142 12.3 340 14.8 100460 89
2005-07-07 07:10:04 51°18.242 2°52.141 13.7 333 14.8 100460 89
2005-07-07 07:10:09 51°18.261 2°52.143 14 335 14.8 100460 89
2005-07-07 07:10:13 51°18.275 2°52.143 15.3 329 14.8 100450 90
2005-07-07 07:10:19 51°18.295 2°52.144 15 341 14.8 100450 90
2005-07-07 07:10:24 51°18.311 2°52.144 14.3 344 14.8 100450 90
2005-07-07 07:10:29 51°18.329 2°52.145 14.9 340 14.8 100450 90
2005-07-07 07:10:34 51°18.345 2°52.146 13.6 346 14.8 100440 90
2005-07-07 07:10:39 51°18.363 2°52.148 16.3 341 14.8 100440 90
2005-07-07 07:10:44 51°18.379 2°52.147 13.9 338 14.8 100440 89
2005-07-07 07:10:49 51°18.397 2°52.152 15.8 339 14.8 100440 89
2005-07-07 07:10:53 51°18.411 2°52.149 15.5 336 14.8 100440 89
2005-07-07 07:10:59 51°18.432 2°52.153 14.4 339 14.8 100440 89
2005-07-07 07:11:04 51°18.448 2°52.153 15.7 337 14.8 100440 89
2005-07-07 07:11:09 51°18.466 2°52.154 15.5 335 14.8 100440 89
2005-07-07 07:11:14 51°18.481 2°52.154 14.9 342 14.8 100460 89
2005-07-07 07:11:19 51°18.5 2°52.155 13.9 339 14.8 100460 89
2005-07-07 07:11:24 51°18.515 2°52.155 14 336 14.8 100450 89
2005-07-07 07:11:29 51°18.534 2°52.158 15.2 338 14.8 100450 89
2005-07-07 07:11:34 51°18.551 2°52.157 13.8 338 14.8 100450 89
2005-07-07 07:11:39 51°18.568 2°52.159 15.4 339 14.8 100450 89
2005-07-07 07:11:44 51°18.583 2°52.159 14.4 333 14.9 100440 89
2005-07-07 07:11:49 51°18.6 2°52.16 13.9 337 14.9 100440 89
2005-07-07 07:11:53 51°18.616 2°52.16 14.4 339 14.9 100440 89
2005-07-07 07:11:59 51°18.636 2°52.161 14.4 334 14.9 100440 89
2005-07-07 07:12:04 51°18.651 2°52.162 13.3 340 14.9 100450 89
2005-07-07 07:12:08 51°18.665 2°52.164 13.6 338 14.9 100450 89
2005-07-07 07:12:14 51°18.686 2°52.162 14.2 334 14.9 100440 88
2005-07-07 07:12:19 51°18.704 2°52.164 14 333 14.9 100440 88
2005-07-07 07:12:24 51°18.72 2°52.162 14.8 332 14.9 100440 88
2005-07-07 07:12:29 51°18.739 2°52.164 15.5 336 14.9 100440 88
2005-07-07 07:12:34 51°18.756 2°52.164 15.9 335 14.9 100450 88
2005-07-07 07:12:39 51°18.774 2°52.166 15.8 336 14.9 100450 88
2005-07-07 07:12:44 51°18.789 2°52.165 14.9 341 14.9 100450 88
2005-07-07 07:12:49 51°18.808 2°52.167 13.3 340 14.9 100450 88
2005-07-07 07:12:54 51°18.825 2°52.166 14.9 341 14.9 100450 88
2005-07-07 07:12:59 51°18.842 2°52.168 14.7 335 14.9 100450 88
2005-07-07 07:13:04 51°18.858 2°52.167 14.6 340 14.9 100450 88
2005-07-07 07:13:09 51°18.877 2°52.168 14.4 339 14.9 100450 88
2005-07-07 07:13:14 51°18.894 2°52.169 13.6 349 14.9 100440 88
2005-07-07 07:13:20 51°18.913 2°52.17 14.7 346 14.9 100440 88
2005-07-07 07:13:24 51°18.927 2°52.169 14.5 339 15 100450 88
2005-07-07 07:13:28 51°18.941 2°52.169 13.9 341 15 100450 88
2005-07-07 07:13:33 51°18.959 2°52.169 14.2 339 15 100450 88
2005-07-07 07:13:39 51°18.98 2°52.17 13.2 341 15 100450 88
2005-07-07 07:13:44 51°18.996 2°52.17 13.3 342 15 100450 88
2005-07-07 07:13:49 51°19.015 2°52.17 12.5 337 15 100450 88
2005-07-07 07:13:53 51°19.027 2°52.169 13.4 343 15 100450 88
2005-07-07 07:13:59 51°19.049 2°52.171 11.9 342 15 100450 88
2005-07-07 07:14:04 51°19.064 2°52.17 14.1 337 15 100460 88
2005-07-07 07:14:09 51°19.083 2°52.173 12.7 343 15 100460 88
2005-07-07 07:14:14 51°19.099 2°52.172 13.8 333 15 100450 88
2005-07-07 07:14:19 51°19.115 2°52.172 13.8 336 15 100450 88
2005-07-07 07:14:24 51°19.134 2°52.172 13.5 334 15 100440 88
2005-07-07 07:14:29 51°19.149 2°52.171 15 335 15 100440 88
2005-07-07 07:14:33 51°19.165 2°52.172 13.2 335 15 100440 88
2005-07-07 07:14:39 51°19.185 2°52.171 13.4 332 15 100440 88
2005-07-07 07:14:43 51°19.199 2°52.171 13.9 332 15.1 100440 88
2005-07-07 07:14:49 51°19.219 2°52.17 13.5 329 15.1 100440 88
2005-07-07 07:14:53 51°19.232 2°52.17 13.2 339 15.1 100430 88
2005-07-07 07:14:59 51°19.253 2°52.17 15.2 338 15.1 100430 88
2005-07-07 07:15:04 51°19.268 2°52.171 14.2 335 15.1 100450 88
2005-07-07 07:15:09 51°19.286 2°52.17 14.1 335 15.1 100450 88
2005-07-07 07:15:13 51°19.3 2°52.17 15.3 330 15.1 100460 88
2005-07-07 07:15:19 51°19.318 2°52.171 15.7 334 15.1 100460 88
2005-07-07 07:15:24 51°19.336 2°52.172 15.3 339 15.1 100460 89
2005-07-07 07:15:29 51°19.354 2°52.173 14.1 336 15.1 100460 89
2005-07-07 07:15:33 51°19.367 2°52.172 14.9 337 15.1 100450 88
2005-07-07 07:15:39 51°19.387 2°52.173 15.2 335 15.1 100450 88
2005-07-07 07:15:44 51°19.402 2°52.173 13.6 341 15 100440 88
2005-07-07 07:15:49 51°19.421 2°52.172 13.1 343 15 100440 88
2005-07-07 07:15:54 51°19.436 2°52.171 14.7 339 15 100450 87
2005-07-07 07:15:59 51°19.452 2°52.172 14.8 337 15 100450 87
2005-07-07 07:16:04 51°19.469 2°52.171 14.7 338 15 100450 87
2005-07-07 07:16:09 51°19.488 2°52.171 14.5 334 15 100450 87
2005-07-07 07:16:13 51°19.502 2°52.172 15.1 338 15.1 100450 88
2005-07-07 07:16:19 51°19.522 2°52.172 13.9 343 15.1 100450 88
2005-07-07 07:16:24 51°19.537 2°52.171 13.9 342 15.1 100440 87
2005-07-07 07:16:29 51°19.556 2°52.17 13.9 339 15.1 100440 87
2005-07-07 07:16:34 51°19.573 2°52.17 14.5 334 15 100440 87
2005-07-07 07:16:39 51°19.588 2°52.17 14.5 334 15 100440 87
2005-07-07 07:16:44 51°19.607 2°52.171 13.7 337 15.1 100460 87
2005-07-07 07:16:48 51°19.619 2°52.17 13.9 332 15.1 100460 87
2005-07-07 07:16:53 51°19.636 2°52.17 13 334 15.1 100450 87
2005-07-07 07:16:59 51°19.658 2°52.169 13.4 337 15.1 100450 87
2005-07-07 07:17:04 51°19.676 2°52.169 14.8 330 15.1 100440 87
2005-07-07 07:17:09 51°19.691 2°52.17 15.5 329 15.1 100440 87
2005-07-07 07:17:14 51°19.71 2°52.169 13 334 15 100440 87
2005-07-07 07:17:19 51°19.727 2°52.17 14.3 335 15 100440 87
2005-07-07 07:17:24 51°19.743 2°52.168 12.5 344 15 100440 87
2005-07-07 07:17:29 51°19.761 2°52.167 14.5 336 15 100440 87
2005-07-07 07:17:34 51°19.776 2°52.166 14 334 15.1 100450 87
2005-07-07 07:17:40 51°19.797 2°52.167 13.9 340 15.1 100450 87
2005-07-07 07:17:44 51°19.812 2°52.166 14 336 15.1 100460 88
2005-07-07 07:17:49 51°19.829 2°52.166 14.2 337 15.1 100460 88
2005-07-07 07:17:54 51°19.844 2°52.167 14.7 334 15.1 100440 87
2005-07-07 07:17:59 51°19.863 2°52.168 12.8 336 15.1 100440 87
2005-07-07 07:18:04 51°19.878 2°52.169 13.8 336 15.1 100460 87
2005-07-07 07:18:08 51°19.892 2°52.171 12.8 328 15.1 100460 87
2005-07-07 07:18:14 51°19.914 2°52.172 14.1 330 15.1 100450 87
2005-07-07 07:18:19 51°19.929 2°52.174 15.1 328 15.1 100450 87
2005-07-07 07:18:24 51°19.945 2°52.175 14.5 332 15.1 100460 87
2005-07-07 07:18:29 51°19.964 2°52.175 14.2 332 15.1 100460 87
2005-07-07 07:18:33 51°19.978 2°52.175 14.1 334 15.1 100470 88
2005-07-07 07:18:40 51°20 2°52.176 14.9 332 15.1 100470 88
2005-07-07 07:18:44 51°20.014 2°52.177 14.5 333 15.1 100450 88
2005-07-07 07:18:49 51°20.033 2°52.178 13.7 335 15.1 100450 88
2005-07-07 07:18:54 51°20.048 2°52.178 13 339 15.1 100450 88
2005-07-07 07:18:59 51°20.066 2°52.179 13.6 342 15.1 100450 88
2005-07-07 07:19:04 51°20.085 2°52.181 13.8 344 15.1 100440 88
2005-07-07 07:19:09 51°20.101 2°52.182 14.8 337 15.1 100440 88
2005-07-07 07:19:14 51°20.118 2°52.182 13.6 336 15.1 100450 88
2005-07-07 07:19:19 51°20.135 2°52.184 14.4 334 15.1 100450 88
2005-07-07 07:19:24 51°20.15 2°52.184 13.6 336 15.2 100450 88
2005-07-07 07:19:29 51°20.169 2°52.187 13.4 338 15.2 100450 88
2005-07-07 07:19:34 51°20.184 2°52.186 13.3 338 15.1 100460 88
2005-07-07 07:19:40 51°20.205 2°52.188 13.8 336 15.1 100460 88
2005-07-07 07:19:44 51°20.218 2°52.188 14.7 342 15.1 100450 88
2005-07-07 07:19:49 51°20.238 2°52.187 14.7 339 15.1 100450 88
2005-07-07 07:19:53 51°20.251 2°52.186 15.2 339 15.1 100450 88
2005-07-07 07:19:59 51°20.272 2°52.182 14.1 338 15.1 100450 88
2005-07-07 07:20:04 51°20.287 2°52.181 14.4 336 15.1 100440 88
2005-07-07 07:20:09 51°20.306 2°52.178 16.5 337 15.1 100440 88
2005-07-07 07:20:14 51°20.323 2°52.175 16.1 335 15.1 100460 88
2005-07-07 07:20:19 51°20.34 2°52.172 13.8 339 15.1 100460 88
2005-07-07 07:20:24 51°20.355 2°52.17 16 341 15.1 100450 88
2005-07-07 07:20:29 51°20.373 2°52.167 15.3 341 15.1 100450 88
2005-07-07 07:20:33 51°20.388 2°52.164 14.2 337 15.1 100450 88
2005-07-07 07:20:39 51°20.408 2°52.16 14.3 340 15.1 100450 88
2005-07-07 07:20:44 51°20.423 2°52.158 13.5 338 15.1 100440 89
2005-07-07 07:20:49 51°20.442 2°52.157 13.3 344 15.1 100440 89
2005-07-07 07:20:54 51°20.457 2°52.157 14.7 343 15.1 100450 89
2005-07-07 07:20:59 51°20.475 2°52.158 15.1 341 15.1 100450 89
2005-07-07 07:21:04 51°20.49 2°52.159 15 343 15.1 100450 89
2005-07-07 07:21:09 51°20.509 2°52.16 16 338 15.1 100450 89
2005-07-07 07:21:14 51°20.526 2°52.162 14.4 341 15.2 100450 89
2005-07-07 07:21:19 51°20.54 2°52.164 14.3 340 15.2 100450 89
2005-07-07 07:21:24 51°20.558 2°52.167 14.9 342 15.2 100450 89
2005-07-07 07:21:29 51°20.577 2°52.17 13.4 346 15.2 100450 89
2005-07-07 07:21:34 51°20.592 2°52.173 14.3 342 15.1 100460 89
2005-07-07 07:21:39 51°20.61 2°52.178 13.8 340 15.1 100460 89
2005-07-07 07:21:44 51°20.625 2°52.18 12.8 345 15.1 100440 89
2005-07-07 07:21:49 51°20.644 2°52.183 13.5 340 15.1 100440 89
2005-07-07 07:21:53 51°20.657 2°52.186 13.2 343 15.1 100450 89
2005-07-07 07:21:59 51°20.678 2°52.19 13 348 15.1 100450 89
2005-07-07 07:22:04 51°20.693 2°52.192 12.7 340 15.1 100460 89
2005-07-07 07:22:09 51°20.711 2°52.197 15.3 347 15.1 100460 89
2005-07-07 07:22:14 51°20.728 2°52.201 15.5 342 15.1 100460 88
2005-07-07 07:22:19 51°20.745 2°52.205 14.2 347 15.1 100460 88
2005-07-07 07:22:24 51°20.76 2°52.206 15.3 340 15.1 100470 88
2005-07-07 07:22:29 51°20.778 2°52.207 15 345 15.1 100470 88
2005-07-07 07:22:34 51°20.793 2°52.203 13.3 349 15.1 100460 89
2005-07-07 07:22:40 51°20.812 2°52.197 14.4 351 15.1 100460 89
2005-07-07 07:22:44 51°20.826 2°52.191 14.4 356 15.1 100470 89
2005-07-07 07:22:49 51°20.844 2°52.184 14.9 356 15.1 100470 89
2005-07-07 07:22:54 51°20.858 2°52.177 14.3 2 15.1 100450 89
2005-07-07 07:22:59 51°20.876 2°52.165 14.2 3 15.1 100450 89
2005-07-07 07:23:04 51°20.89 2°52.154 14.4 5 15.1 100450 89
2005-07-07 07:23:09 51°20.907 2°52.139 13.5 5 15.1 100450 89
2005-07-07 07:23:14 51°20.92 2°52.125 15.1 10 15.1 100450 88
2005-07-07 07:23:19 51°20.937 2°52.109 14.6 9 15.1 100450 88
2005-07-07 07:23:24 51°20.95 2°52.093 14.7 12 15.1 100460 88
2005-07-07 07:23:29 51°20.966 2°52.075 14 16 15.1 100460 88
2005-07-07 07:23:34 51°20.98 2°52.056 13.3 14 15.1 100460 88
2005-07-07 07:23:39 51°20.992 2°52.04 13.8 10 15.1 100460 88
2005-07-07 07:23:44 51°21.005 2°52.021 14.3 11 15.1 100460 88
2005-07-07 07:23:49 51°21.02 2°52 14.5 14 15.1 100460 88
2005-07-07 07:23:53 51°21.029 2°51.986 14.4 11 15 100460 87
2005-07-07 07:23:59 51°21.046 2°51.96 15.3 12 15 100460 87
2005-07-07 07:24:04 51°21.058 2°51.941 15.3 12 15 100470 88
2005-07-07 07:24:09 51°21.072 2°51.918 16.5 16 15 100470 88
2005-07-07 07:24:13 51°21.082 2°51.902 15 15 15.1 100460 87
2005-07-07 07:24:19 51°21.097 2°51.878 13.1 20 15.1 100460 87
2005-07-07 07:24:24 51°21.108 2°51.859 13 17 15.1 100470 87
2005-07-07 07:24:29 51°21.122 2°51.839 13.5 16 15.1 100470 87
2005-07-07 07:24:34 51°21.135 2°51.817 13 12 15 100470 87
2005-07-07 07:24:39 51°21.148 2°51.797 13.8 15 15 100470 87
2005-07-07 07:24:44 51°21.159 2°51.778 15.4 16 15 100460 87
2005-07-07 07:24:49 51°21.174 2°51.758 15 16 15 100460 87
2005-07-07 07:24:53 51°21.184 2°51.742 15.1 16 15.1 100460 88
2005-07-07 07:24:59 51°21.201 2°51.719 13.8 18 15.1 100460 88
2005-07-07 07:25:04 51°21.212 2°51.702 13.7 18 15.1 100470 88
2005-07-07 07:25:09 51°21.228 2°51.681 13.8 15 15.1 100470 88
2005-07-07 07:25:13 51°21.239 2°51.667 14.5 13 15 100460 87
2005-07-07 07:25:19 51°21.256 2°51.646 13.7 17 15 100460 87
2005-07-07 07:25:24 51°21.269 2°51.631 13.6 5 15 100470 86
2005-07-07 07:25:29 51°21.285 2°51.612 14.2 11 15 100470 86
2005-07-07 07:25:34 51°21.3 2°51.596 15.5 10 15 100470 86
2005-07-07 07:25:39 51°21.315 2°51.58 14.9 13 15 100470 86
2005-07-07 07:25:44 51°21.328 2°51.566 16.1 7 15 100470 86
2005-07-07 07:25:49 51°21.344 2°51.549 13.2 8 15 100470 86
2005-07-07 07:25:54 51°21.358 2°51.536 15 7 15 100480 86
2005-07-07 07:26:00 51°21.377 2°51.52 14.3 2 15 100480 86
2005-07-07 07:26:04 51°21.392 2°51.509 12.3 359 15 100480 86
2005-07-07 07:26:09 51°21.408 2°51.498 14.1 4 15 100480 86
2005-07-07 07:26:13 51°21.421 2°51.49 15.3 5 15 100470 86
2005-07-07 07:26:20 51°21.443 2°51.475 14.2 7 15 100470 86
2005-07-07 07:26:24 51°21.456 2°51.467 15 5 15 100480 86
2005-07-07 07:26:29 51°21.474 2°51.455 15.9 2 15 100480 86
2005-07-07 07:26:33 51°21.486 2°51.45 15.6 1 15 100470 86
2005-07-07 07:26:40 51°21.508 2°51.436 13.9 360 15 100470 86
2005-07-07 07:26:44 51°21.521 2°51.428 14.5 -999 15 100480 86
2005-07-07 07:26:49 51°21.54 2°51.42 14 358 15 100480 86
2005-07-07 07:26:53 51°21.553 2°51.414 14.3 358 15 100480 86
2005-07-07 07:27:00 51°21.575 2°51.407 14.4 1 15 100480 86
2005-07-07 07:27:04 51°21.59 2°51.403 14.1 1 15 100480 86
2005-07-07 07:27:09 51°21.607 2°51.398 15.7 357 15 100480 86
2005-07-07 07:27:14 51°21.623 2°51.395 15.2 359 15 100470 85
2005-07-07 07:27:19 51°21.642 2°51.391 14.5 355 15 100470 85
2005-07-07 07:27:24 51°21.657 2°51.388 14.9 353 15 100480 85
2005-07-07 07:27:29 51°21.674 2°51.387 14.6 355 15 100480 85
2005-07-07 07:27:33 51°21.69 2°51.386 14.8 350 15 100470 85
2005-07-07 07:27:40 51°21.712 2°51.385 13.2 354 15 100470 85
2005-07-07 07:27:44 51°21.726 2°51.385 13.2 348 15 100470 85
2005-07-07 07:27:49 51°21.745 2°51.388 14.3 351 15 100470 85
2005-07-07 07:27:54 51°21.76 2°51.388 13.9 348 15 100480 85
2005-07-07 07:27:59 51°21.779 2°51.392 13.4 349 15 100480 85
2005-07-07 07:28:04 51°21.796 2°51.395 14 345 15 100480 85
2005-07-07 07:28:09 51°21.813 2°51.398 13.7 348 15 100480 85
2005-07-07 07:28:14 51°21.828 2°51.401 14.3 346 15.1 100470 85
2005-07-07 07:28:19 51°21.847 2°51.404 12.7 349 15.1 100470 85
2005-07-07 07:28:24 51°21.864 2°51.406 14 342 15.1 100470 86
2005-07-07 07:28:29 51°21.88 2°51.411 13.4 340 15.1 100470 86
2005-07-07 07:28:34 51°21.897 2°51.417 14.1 335 15.1 100470 86
2005-07-07 07:28:39 51°21.913 2°51.425 14.4 329 15.1 100470 86
2005-07-07 07:28:44 51°21.927 2°51.435 13.4 349 15.1 100470 86
2005-07-07 07:28:49 51°21.945 2°51.443 13.9 335 15.1 100470 86
2005-07-07 07:28:53 51°21.956 2°51.454 13.7 342 15.1 100470 85
2005-07-07 07:28:59 51°21.975 2°51.464 13.8 335 15.1 100470 85
2005-07-07 07:29:04 51°21.989 2°51.48 13 335 15.1 100480 86
2005-07-07 07:29:09 51°22.005 2°51.488 13 345 15.1 100480 86
2005-07-07 07:29:14 51°22.018 2°51.5 13.7 336 15.1 100460 85
2005-07-07 07:29:19 51°22.036 2°51.511 13.7 337 15.1 100460 85
2005-07-07 07:29:24 51°22.05 2°51.522 13.5 340 15.1 100460 85
2005-07-07 07:29:29 51°22.065 2°51.531 14.1 348 15.1 100460 85
2005-07-07 07:29:34 51°22.08 2°51.544 13.3 348 15.1 100470 86
2005-07-07 07:29:39 51°22.099 2°51.551 13.6 347 15.1 100470 86
2005-07-07 07:29:44 51°22.112 2°51.563 15.3 345 15.1 100470 86
2005-07-07 07:29:49 51°22.129 2°51.571 12.5 340 15.1 100470 86
2005-07-07 07:29:53 51°22.141 2°51.582 13.1 345 15.1 100470 86
2005-07-07 07:29:59 51°22.161 2°51.588 12.8 346 15.1 100470 86
2005-07-07 07:30:04 51°22.174 2°51.601 14.3 337 15.1 100470 86
2005-07-07 07:30:09 51°22.191 2°51.612 13.5 346 15.1 100470 86
2005-07-07 07:30:14 51°22.205 2°51.619 13.7 336 15.1 100480 86
2005-07-07 07:30:19 51°22.221 2°51.633 13 346 15.1 100480 86
2005-07-07 07:30:24 51°22.236 2°51.638 14.2 330 15.1 100470 85
2005-07-07 07:30:29 51°22.252 2°51.653 12.9 338 15.1 100470 85
2005-07-07 07:30:34 51°22.267 2°51.659 12.7 340 15.1 100470 85
2005-07-07 07:30:39 51°22.283 2°51.673 14 346 15.1 100470 85
2005-07-07 07:30:44 51°22.298 2°51.681 14.6 342 15.1 100470 85
2005-07-07 07:30:49 51°22.315 2°51.694 14.3 343 15.1 100470 85
2005-07-07 07:30:54 51°22.331 2°51.702 14 346 15.1 100470 85
2005-07-07 07:30:59 51°22.347 2°51.713 13.9 340 15.1 100470 85
2005-07-07 07:31:04 51°22.36 2°51.723 12.7 350 15.1 100480 85
2005-07-07 07:31:08 51°22.373 2°51.729 14 340 15.1 100480 85
2005-07-07 07:31:14 51°22.391 2°51.744 13.4 -999 15.1 100480 85
2005-07-07 07:31:19 51°22.41 2°51.749 12.8 347 15.1 100480 85
2005-07-07 07:31:24 51°22.424 2°51.764 13 351 15.1 100490 85
2005-07-07 07:31:29 51°22.441 2°51.771 12.7 349 15.1 100490 85
2005-07-07 07:31:33 51°22.453 2°51.78 13.6 345 15.2 100480 84
2005-07-07 07:31:39 51°22.472 2°51.792 13.7 342 15.2 100480 84
2005-07-07 07:31:44 51°22.488 2°51.802 13.7 348 15.1 100470 84
2005-07-07 07:31:48 51°22.498 2°51.81 12.3 344 15.1 100470 84
2005-07-07 07:31:54 51°22.517 2°51.821 14.4 344 15.1 100460 84
2005-07-07 07:32:00 51°22.536 2°51.832 13.3 342 15.1 100460 84
2005-07-07 07:32:04 51°22.548 2°51.843 14.3 349 15.1 100480 84
2005-07-07 07:32:09 51°22.565 2°51.848 13.2 347 15.1 100480 84
2005-07-07 07:32:13 51°22.578 2°51.859 14.7 341 15.1 100480 84
2005-07-07 07:32:20 51°22.598 2°51.873 13.9 349 15.1 100480 84
2005-07-07 07:32:24 51°22.613 2°51.88 14 342 15.1 100490 84
2005-07-07 07:32:29 51°22.628 2°51.89 13.1 348 15.1 100490 84
2005-07-07 07:32:33 51°22.64 2°51.899 15.3 336 15.1 100480 84
2005-07-07 07:32:39 51°22.659 2°51.911 12.8 345 15.1 100480 84
2005-07-07 07:32:44 51°22.675 2°51.918 13.3 340 15.1 100490 84
2005-07-07 07:32:49 51°22.69 2°51.932 15.2 341 15.1 100490 84
2005-07-07 07:32:54 51°22.705 2°51.938 14.1 344 15.1 100490 84
2005-07-07 07:32:59 51°22.721 2°51.951 15.4 340 15.1 100490 84
2005-07-07 07:33:04 51°22.736 2°51.957 13.5 344 15.1 100490 84
2005-07-07 07:33:09 51°22.753 2°51.969 14.8 340 15.1 100490 84
2005-07-07 07:33:13 51°22.766 2°51.974 14.6 345 15.2 100470 84
2005-07-07 07:33:19 51°22.784 2°51.988 14.8 335 15.2 100470 84
2005-07-07 07:33:24 51°22.8 2°51.996 13 344 15.2 100480 84
2005-07-07 07:33:29 51°22.815 2°52.008 14 344 15.2 100480 84
2005-07-07 07:33:33 51°22.828 2°52.013 14.7 344 15.1 100510 84
2005-07-07 07:33:39 51°22.847 2°52.028 13.8 340 15.1 100510 84
2005-07-07 07:33:44 51°22.863 2°52.034 14 341 15.2 100500 84
2005-07-07 07:33:48 51°22.873 2°52.043 14.1 347 15.2 100500 84
2005-07-07 07:33:54 51°22.894 2°52.052 14.4 338 15.1 100490 84
2005-07-07 07:34:00 51°22.911 2°52.066 14.5 341 15.1 100490 84
2005-07-07 07:34:04 51°22.924 2°52.07 12.8 343 15.2 100500 84
2005-07-07 07:34:09 51°22.94 2°52.084 14 341 15.2 100500 84
2005-07-07 07:34:14 51°22.955 2°52.089 12 350 15.2 100490 84
2005-07-07 07:34:19 51°22.972 2°52.103 13.8 339 15.2 100490 84
2005-07-07 07:34:24 51°22.986 2°52.111 12 349 15.1 100480 84
2005-07-07 07:34:29 51°23.003 2°52.123 12.4 346 15.1 100480 84
2005-07-07 07:34:34 51°23.017 2°52.129 12.9 352 15.2 100480 84
2005-07-07 07:34:39 51°23.034 2°52.142 14.8 347 15.2 100480 84
2005-07-07 07:34:44 51°23.047 2°52.15 14.7 349 15.2 100510 84
2005-07-07 07:34:48 51°23.06 2°52.159 13.9 348 15.2 100510 84
2005-07-07 07:34:53 51°23.076 2°52.167 13.5 352 15.2 100500 84
2005-07-07 07:34:59 51°23.096 2°52.18 13.5 350 15.2 100500 84
2005-07-07 07:35:04 51°23.11 2°52.188 13.5 349 15.2 100520 84
2005-07-07 07:35:09 51°23.127 2°52.199 13.9 347 15.2 100520 84
2005-07-07 07:35:13 51°23.138 2°52.205 14.4 345 15.2 100510 85
2005-07-07 07:35:19 51°23.157 2°52.217 14.6 349 15.2 100510 85
2005-07-07 07:35:24 51°23.173 2°52.227 13.7 350 15.2 100490 85
2005-07-07 07:35:29 51°23.191 2°52.235 13.5 348 15.2 100490 85
2005-07-07 07:35:34 51°23.204 2°52.245 13.6 345 15.2 100490 85
2005-07-07 07:35:39 51°23.221 2°52.254 13.1 351 15.2 100490 85
2005-07-07 07:35:44 51°23.236 2°52.261 13.4 349 15.2 100500 85
2005-07-07 07:35:48 51°23.25 2°52.27 14.5 337 15.2 100500 85
2005-07-07 07:35:54 51°23.267 2°52.28 13.7 349 15.2 100500 85
2005-07-07 07:35:59 51°23.283 2°52.29 13.4 340 15.2 100500 85
2005-07-07 07:36:04 51°23.298 2°52.298 13 349 15.2 100510 84
2005-07-07 07:36:08 51°23.31 2°52.306 13.6 341 15.2 100510 84
2005-07-07 07:36:13 51°23.327 2°52.316 11.6 350 15.1 100490 84
2005-07-07 07:36:20 51°23.347 2°52.327 13.1 345 15.1 100490 84
2005-07-07 07:36:24 51°23.359 2°52.336 13.4 342 15.1 100510 84
2005-07-07 07:36:29 51°23.376 2°52.346 13.8 349 15.1 100510 84
2005-07-07 07:36:33 51°23.389 2°52.355 13.6 341 15.1 100500 85
2005-07-07 07:36:39 51°23.407 2°52.362 11.9 346 15.1 100500 85
2005-07-07 07:36:44 51°23.42 2°52.373 13.5 346 15.1 100500 85
2005-07-07 07:36:49 51°23.439 2°52.38 12.1 346 15.1 100500 85
2005-07-07 07:36:53 51°23.45 2°52.39 13 338 15.1 100520 85
2005-07-07 07:36:59 51°23.469 2°52.401 14.2 339 15.1 100520 85
2005-07-07 07:37:04 51°23.483 2°52.408 13.6 345 15.2 100510 85
2005-07-07 07:37:09 51°23.499 2°52.417 13.4 342 15.2 100510 85
2005-07-07 07:37:13 51°23.512 2°52.425 14.4 337 15.1 100490 85
2005-07-07 07:37:19 51°23.531 2°52.436 13.8 345 15.1 100490 85
2005-07-07 07:37:24 51°23.544 2°52.444 12.7 352 15.1 100520 85
2005-07-07 07:37:29 51°23.561 2°52.455 13.5 347 15.1 100520 85
2005-07-07 07:37:33 51°23.574 2°52.461 13.7 347 15.2 100510 85
2005-07-07 07:37:39 51°23.592 2°52.473 11.9 351 15.2 100510 85
2005-07-07 07:37:44 51°23.606 2°52.481 12 351 15.2 100510 85
2005-07-07 07:37:49 51°23.622 2°52.493 13 350 15.2 100510 85
2005-07-07 07:37:53 51°23.634 2°52.499 13.8 338 15.2 100520 86
2005-07-07 07:37:59 51°23.653 2°52.514 12.6 351 15.2 100520 86
2005-07-07 07:38:04 51°23.667 2°52.519 14 334 15.2 100500 86
2005-07-07 07:38:09 51°23.684 2°52.533 12.8 341 15.2 100500 86
2005-07-07 07:38:14 51°23.699 2°52.542 12.2 349 15.2 100520 86
2005-07-07 07:38:20 51°23.716 2°52.554 12.1 343 15.2 100520 86
2005-07-07 07:38:24 51°23.728 2°52.562 13.1 341 15.1 100530 86
2005-07-07 07:38:29 51°23.743 2°52.576 12.3 351 15.1 100530 86
2005-07-07 07:38:34 51°23.759 2°52.585 12.3 342 15.1 100520 86
2005-07-07 07:38:39 51°23.774 2°52.596 13.3 348 15.1 100520 86
2005-07-07 07:38:44 51°23.787 2°52.606 13.2 347 15.2 100520 86
2005-07-07 07:38:49 51°23.804 2°52.618 13.6 351 15.2 100520 86
2005-07-07 07:38:53 51°23.816 2°52.626 14.7 355 15.2 100520 86
2005-07-07 07:39:00 51°23.836 2°52.64 14.9 352 15.2 100520 86
2005-07-07 07:39:04 51°23.848 2°52.647 13.6 354 15.2 100520 86
2005-07-07 07:39:09 51°23.864 2°52.66 13.4 352 15.2 100520 86
2005-07-07 07:39:14 51°23.88 2°52.669 13.9 350 15.2 100530 87
2005-07-07 07:39:19 51°23.895 2°52.681 14.2 347 15.2 100530 87
2005-07-07 07:39:24 51°23.909 2°52.689 14.3 350 15.2 100510 86
2005-07-07 07:39:29 51°23.924 2°52.703 14.8 340 15.2 100510 86
2005-07-07 07:39:34 51°23.938 2°52.712 12.7 2 15.1 100520 86
2005-07-07 07:39:40 51°23.955 2°52.727 13.3 356 15.1 100520 86
2005-07-07 07:39:44 51°23.969 2°52.735 13.6 348 15.1 100510 86
2005-07-07 07:39:49 51°23.983 2°52.747 14.1 349 15.1 100510 86
2005-07-07 07:39:53 51°23.994 2°52.756 13.8 349 15.1 100490 86
2005-07-07 07:39:59 51°24.013 2°52.769 13.7 353 15.1 100490 86
2005-07-07 07:40:04 51°24.026 2°52.779 13.7 353 15.1 100510 86
2005-07-07 07:40:10 51°24.042 2°52.795 14.6 357 15.1 100510 86
2005-07-07 07:40:14 51°24.055 2°52.8 15.1 350 15.1 100510 86
2005-07-07 07:40:20 51°24.073 2°52.817 14.1 352 15.1 100510 86
2005-07-07 07:40:25 51°24.088 2°52.825 14.1 348 15.2 100520 86
2005-07-07 07:40:29 51°24.1 2°52.837 15.1 344 15.2 100520 86
2005-07-07 07:40:33 51°24.113 2°52.845 13.9 353 15.1 100520 86
2005-07-07 07:40:39 51°24.131 2°52.858 13.7 348 15.1 100520 86
2005-07-07 07:40:44 51°24.144 2°52.868 12.7 354 15.1 100510 86
2005-07-07 07:40:49 51°24.161 2°52.879 13.5 347 15.1 100510 86
2005-07-07 07:40:54 51°24.174 2°52.889 13.7 352 15.1 100490 86
2005-07-07 07:41:00 51°24.193 2°52.901 14.7 355 15.1 100490 86
2005-07-07 07:41:05 51°24.208 2°52.912 13.8 352 15.1 100510 86
2005-07-07 07:41:09 51°24.221 2°52.922 14 359 15.1 100510 86
2005-07-07 07:41:14 51°24.236 2°52.93 14.2 357 15.1 100520 86
2005-07-07 07:41:19 51°24.253 2°52.94 14.7 352 15.1 100520 86
2005-07-07 07:41:24 51°24.267 2°52.949 13.3 356 15.1 100510 86
2005-07-07 07:41:29 51°24.284 2°52.959 14.5 347 15.1 100510 86
2005-07-07 07:41:33 51°24.295 2°52.964 13 357 15.1 100530 85
2005-07-07 07:41:39 51°24.314 2°52.975 12.7 348 15.1 100530 85
2005-07-07 07:41:44 51°24.329 2°52.984 13.1 352 15.1 100510 85
2005-07-07 07:41:49 51°24.346 2°52.992 13 345 15.1 100510 85
2005-07-07 07:41:54 51°24.361 2°53.002 12.4 359 15.1 100510 85
2005-07-07 07:41:59 51°24.379 2°53.008 12.5 354 15.1 100510 85
2005-07-07 07:42:04 51°24.393 2°53.018 13.1 357 15.1 100520 85
2005-07-07 07:42:09 51°24.409 2°53.024 13.2 353 15.1 100520 85
2005-07-07 07:42:13 51°24.422 2°53.034 13 355 15.1 100510 85
2005-07-07 07:42:19 51°24.441 2°53.043 12.4 356 15.1 100510 85
2005-07-07 07:42:24 51°24.455 2°53.052 12.5 353 15.1 100520 86
2005-07-07 07:42:29 51°24.472 2°53.061 13.7 8 15.1 100520 86
2005-07-07 07:42:33 51°24.485 2°53.069 13.8 349 15.1 100510 85
2005-07-07 07:42:39 51°24.503 2°53.079 13.2 4 15.1 100510 85
2005-07-07 07:42:44 51°24.518 2°53.085 14.4 352 15.1 100520 85
2005-07-07 07:42:49 51°24.534 2°53.096 14.5 358 15.1 100520 85
2005-07-07 07:42:54 51°24.549 2°53.102 14.5 351 15.1 100520 86
2005-07-07 07:43:00 51°24.567 2°53.114 13.1 357 15.1 100520 86
2005-07-07 07:43:04 51°24.58 2°53.12 13.4 353 15.1 100520 85
2005-07-07 07:43:09 51°24.596 2°53.13 13.5 353 15.1 100520 85
2005-07-07 07:43:13 51°24.61 2°53.138 13.8 354 15.1 100520 85
2005-07-07 07:43:19 51°24.629 2°53.148 13.1 359 15.1 100520 85
2005-07-07 07:43:24 51°24.643 2°53.158 14.2 354 15.1 100510 85
2005-07-07 07:43:29 51°24.66 2°53.166 13.7 354 15.1 100510 85
2005-07-07 07:43:34 51°24.674 2°53.177 14.4 357 15.1 100510 85
2005-07-07 07:43:38 51°24.69 2°53.18 13.5 6 15.1 100510 85
2005-07-07 07:43:44 51°24.707 2°53.191 13.6 357 15 100510 85
2005-07-07 07:43:49 51°24.724 2°53.2 13.9 358 15 100510 85
2005-07-07 07:43:53 51°24.736 2°53.208 14.8 358 15 100520 85
2005-07-07 07:43:59 51°24.756 2°53.218 14.4 354 15 100520 85
2005-07-07 07:44:04 51°24.77 2°53.225 13.6 357 15.1 100510 85
2005-07-07 07:44:09 51°24.786 2°53.235 14 354 15.1 100510 85
2005-07-07 07:44:13 51°24.799 2°53.24 13.7 358 15.1 100510 85
2005-07-07 07:44:19 51°24.816 2°53.252 14.8 353 15.1 100510 85
2005-07-07 07:44:24 51°24.832 2°53.259 13.7 354 15.1 100510 85
2005-07-07 07:44:29 51°24.849 2°53.27 12.9 359 15.1 100510 85
2005-07-07 07:44:33 51°24.862 2°53.276 14.5 351 15.1 100520 85
2005-07-07 07:44:39 51°24.881 2°53.286 13.3 354 15.1 100520 85
2005-07-07 07:44:44 51°24.894 2°53.295 13 355 15.1 100520 85
2005-07-07 07:44:49 51°24.912 2°53.304 12.4 352 15.1 100520 85
2005-07-07 07:44:53 51°24.924 2°53.312 12.9 349 15.1 100510 85
2005-07-07 07:45:00 51°24.945 2°53.324 12.4 356 15.1 100510 85
2005-07-07 07:45:04 51°24.957 2°53.33 11.9 353 15 100500 85
2005-07-07 07:45:09 51°24.974 2°53.341 15.6 347 15 100500 85
2005-07-07 07:45:14 51°24.989 2°53.349 14.5 355 15 100520 85
2005-07-07 07:45:19 51°25.006 2°53.358 13.8 355 15 100520 85
2005-07-07 07:45:24 51°25.02 2°53.365 13.3 351 15 100530 85
2005-07-07 07:45:29 51°25.036 2°53.376 13.9 350 15 100530 85
2005-07-07 07:45:33 51°25.049 2°53.384 13 352 15.1 100510 85
2005-07-07 07:45:39 51°25.068 2°53.394 12.4 356 15.1 100510 85
2005-07-07 07:45:44 51°25.082 2°53.403 12.4 353 15.1 100520 85
2005-07-07 07:45:49 51°25.098 2°53.41 13.8 355 15.1 100520 85
2005-07-07 07:45:53 51°25.111 2°53.421 13.5 345 15 100500 85
2005-07-07 07:46:00 51°25.131 2°53.434 13.1 359 15 100500 85
2005-07-07 07:46:04 51°25.145 2°53.439 13.5 351 15 100520 84
2005-07-07 07:46:09 51°25.161 2°53.452 14.1 348 15 100520 84
2005-07-07 07:46:14 51°25.176 2°53.459 14 359 15 100520 84
2005-07-07 07:46:17 51°25.187 2°53.466 13.9 352 15 100520 84
2005-07-07 07:46:24 51°25.207 2°53.476 14.1 356 15 100530 85
2005-07-07 07:46:29 51°25.225 2°53.487 14.1 354 15 100530 85
2005-07-07 07:46:33 51°25.238 2°53.493 13.7 352 15 100510 85
2005-07-07 07:46:39 51°25.254 2°53.504 13.1 357 15 100510 85
2005-07-07 07:46:44 51°25.271 2°53.511 14 352 15 100510 85
2005-07-07 07:46:49 51°25.287 2°53.524 13.4 360 15 100510 85
2005-07-07 07:46:54 51°25.302 2°53.53 12.8 5 15 100520 85
2005-07-07 07:46:59 51°25.319 2°53.541 13.4 354 15 100520 85
2005-07-07 07:47:04 51°25.333 2°53.549 13.2 353 15 100530 84
2005-07-07 07:47:09 51°25.35 2°53.559 12.4 353 15 100530 84
2005-07-07 07:47:14 51°25.364 2°53.569 13.4 3 15 100520 84
2005-07-07 07:47:19 51°25.382 2°53.574 13.1 357 15 100520 84
2005-07-07 07:47:24 51°25.396 2°53.588 13.8 2 15 100520 85
2005-07-07 07:47:28 51°25.408 2°53.591 13.5 1 15 100520 85
2005-07-07 07:47:34 51°25.426 2°53.606 13.4 357 15 100530 85
2005-07-07 07:47:39 51°25.443 2°53.614 13.6 355 15 100530 85
2005-07-07 07:47:44 51°25.456 2°53.625 12.9 5 15 100510 85
2005-07-07 07:47:49 51°25.472 2°53.631 13.3 3 15 100510 85
2005-07-07 07:47:54 51°25.488 2°53.641 12.8 -999 15 100520 85
2005-07-07 07:48:00 51°25.506 2°53.652 13.3 355 15 100520 85
2005-07-07 07:48:04 51°25.519 2°53.659 13.6 354 15 100530 85
2005-07-07 07:48:09 51°25.536 2°53.668 12.5 352 15 100530 85
2005-07-07 07:48:13 51°25.548 2°53.676 13.2 5 15 100510 84
2005-07-07 07:48:19 51°25.568 2°53.687 12.9 8 15 100510 84
2005-07-07 07:48:24 51°25.584 2°53.696 12.5 357 15 100520 84
2005-07-07 07:48:29 51°25.599 2°53.703 12.6 2 15 100520 84
2005-07-07 07:48:33 51°25.612 2°53.712 13.3 354 15 100520 84
2005-07-07 07:48:39 51°25.631 2°53.723 13.8 360 15 100520 84
2005-07-07 07:48:44 51°25.648 2°53.73 14.3 352 15 100540 85
2005-07-07 07:48:49 51°25.662 2°53.742 14.4 5 15 100540 85
2005-07-07 07:48:54 51°25.677 2°53.748 13.5 2 15 100530 84
2005-07-07 07:48:59 51°25.695 2°53.759 13.5 -999 15 100530 84
2005-07-07 07:49:04 51°25.708 2°53.768 14.2 356 15 100530 85
2005-07-07 07:49:10 51°25.728 2°53.778 13.3 360 15 100530 85
2005-07-07 07:49:13 51°25.739 2°53.784 14.4 349 15.1 100520 85
2005-07-07 07:49:19 51°25.757 2°53.797 13.3 354 15.1 100520 85
2005-07-07 07:49:24 51°25.772 2°53.804 13.6 -999 15.1 100510 85
2005-07-07 07:49:29 51°25.79 2°53.814 13.8 1 15.1 100510 85
2005-07-07 07:49:33 51°25.802 2°53.82 13.7 353 15 100530 84
2005-07-07 07:49:39 51°25.82 2°53.834 14.5 359 15 100530 84
2005-07-07 07:49:44 51°25.837 2°53.839 14.8 347 15.1 100510 84
2005-07-07 07:49:49 51°25.852 2°53.85 14.6 354 15.1 100510 84
2005-07-07 07:49:53 51°25.865 2°53.857 13.6 354 15 100510 84
2005-07-07 07:49:59 51°25.883 2°53.868 13.6 353 15 100510 84
2005-07-07 07:50:04 51°25.897 2°53.877 13.8 351 15.1 100540 85
2005-07-07 07:50:09 51°25.914 2°53.886 13.7 351 15.1 100540 85
2005-07-07 07:50:13 51°25.926 2°53.896 12.7 350 15.1 100520 85
2005-07-07 07:50:19 51°25.946 2°53.906 12.3 356 15.1 100520 85
2005-07-07 07:50:24 51°25.959 2°53.915 12.8 352 15.1 100530 85
2005-07-07 07:50:29 51°25.976 2°53.926 14.4 359 15.1 100530 85
2005-07-07 07:50:34 51°25.991 2°53.934 14 348 15.1 100520 84
2005-07-07 07:50:39 51°26.007 2°53.946 13.1 355 15.1 100520 84
2005-07-07 07:50:44 51°26.021 2°53.956 12.9 353 15.1 100530 84
2005-07-07 07:50:49 51°26.038 2°53.965 13 348 15.1 100530 84
2005-07-07 07:50:54 51°26.051 2°53.978 14.3 351 15.1 100520 85
2005-07-07 07:50:59 51°26.069 2°53.987 13.3 354 15.1 100520 85
2005-07-07 07:51:04 51°26.082 2°53.997 13.3 358 15.1 100530 85
2005-07-07 07:51:09 51°26.099 2°54.007 13.5 353 15.1 100530 85
2005-07-07 07:51:14 51°26.113 2°54.018 12.9 360 15.1 100520 85
2005-07-07 07:51:19 51°26.13 2°54.027 13 348 15.1 100520 85
2005-07-07 07:51:24 51°26.144 2°54.039 13 2 15.1 100530 85
2005-07-07 07:51:29 51°26.16 2°54.047 13.2 351 15.1 100530 85
2005-07-07 07:51:33 51°26.173 2°54.059 12.6 1 15.1 100520 85
2005-07-07 07:51:39 51°26.192 2°54.068 12.7 358 15.1 100520 85
2005-07-07 07:51:44 51°26.205 2°54.081 13.3 345 15.1 100530 85
2005-07-07 07:51:49 51°26.222 2°54.092 12.9 355 15.1 100530 85
2005-07-07 07:51:53 51°26.234 2°54.101 13.7 344 15.1 100520 85
2005-07-07 07:52:00 51°26.255 2°54.114 12.8 350 15.1 100520 85
2005-07-07 07:52:04 51°26.267 2°54.121 12.8 350 15.1 100520 85
2005-07-07 07:52:09 51°26.284 2°54.134 13.6 349 15.1 100520 85
2005-07-07 07:52:14 51°26.3 2°54.143 13.5 349 15.1 100530 85
2005-07-07 07:52:19 51°26.315 2°54.154 14.5 348 15.1 100530 85
2005-07-07 07:52:24 51°26.329 2°54.163 14.3 347 15.1 100530 85
2005-07-07 07:52:29 51°26.346 2°54.175 14.1 349 15.1 100530 85
2005-07-07 07:52:34 51°26.361 2°54.184 14 351 15.1 100520 85
2005-07-07 07:52:40 51°26.379 2°54.196 13.2 348 15.1 100520 85
2005-07-07 07:52:44 51°26.393 2°54.207 13.4 351 15.1 100520 85
2005-07-07 07:52:49 51°26.409 2°54.216 13.7 346 15.1 100520 85
2005-07-07 07:52:54 51°26.422 2°54.227 13.1 359 15.1 100500 84
2005-07-07 07:52:59 51°26.44 2°54.236 13.5 349 15.1 100500 84
2005-07-07 07:53:04 51°26.453 2°54.247 13.5 355 15.1 100530 84
2005-07-07 07:53:09 51°26.47 2°54.257 13.1 354 15.1 100530 84
2005-07-07 07:53:14 51°26.486 2°54.269 12.5 357 15.1 100500 84
2005-07-07 07:53:17 51°26.495 2°54.273 12.5 1 15.1 100500 84
2005-07-07 07:53:24 51°26.515 2°54.288 13 353 15.1 100520 85
2005-07-07 07:53:29 51°26.531 2°54.297 12.5 353 15.1 100520 85
2005-07-07 07:53:33 51°26.545 2°54.309 14 352 15.1 100520 84
2005-07-07 07:53:39 51°26.563 2°54.318 13.7 2 15.1 100520 84
2005-07-07 07:53:44 51°26.58 2°54.33 14.5 348 15.1 100520 85
2005-07-07 07:53:49 51°26.594 2°54.343 13.9 354 15.1 100520 85
2005-07-07 07:53:55 51°26.613 2°54.353 14.3 354 15.2 100520 85
2005-07-07 07:54:00 51°26.627 2°54.364 13.3 354 15.2 100520 85
2005-07-07 07:54:04 51°26.642 2°54.372 14.5 358 15.2 100510 85
2005-07-07 07:54:09 51°26.657 2°54.383 13.4 352 15.2 100510 85
2005-07-07 07:54:14 51°26.671 2°54.39 13.1 353 15.2 100520 85
2005-07-07 07:54:19 51°26.688 2°54.403 13.4 355 15.2 100520 85
2005-07-07 07:54:24 51°26.705 2°54.411 13.9 350 15.2 100520 85
2005-07-07 07:54:29 51°26.72 2°54.422 14 354 15.2 100520 85
2005-07-07 07:54:33 51°26.732 2°54.428 14.2 350 15.1 100530 84
2005-07-07 07:54:40 51°26.752 2°54.441 13 354 15.1 100530 84
2005-07-07 07:54:44 51°26.765 2°54.448 13.2 344 15.1 100530 84
2005-07-07 07:54:49 51°26.781 2°54.459 13.1 352 15.1 100530 84
2005-07-07 07:54:54 51°26.797 2°54.468 14 343 15.1 100530 84
2005-07-07 07:54:59 51°26.811 2°54.48 13 355 15.1 100530 84
2005-07-07 07:55:04 51°26.826 2°54.489 13.4 351 15.1 100530 84
2005-07-07 07:55:09 51°26.842 2°54.497 12.7 359 15.1 100530 84
2005-07-07 07:55:13 51°26.853 2°54.507 13.9 354 15.1 100520 84
2005-07-07 07:55:19 51°26.871 2°54.518 13.8 355 15.1 100520 84
2005-07-07 07:55:24 51°26.884 2°54.529 14 354 15.1 100540 85
2005-07-07 07:55:29 51°26.901 2°54.537 13 354 15.1 100540 85
2005-07-07 07:55:33 51°26.912 2°54.548 13.4 349 15.2 100530 85
2005-07-07 07:55:40 51°26.932 2°54.56 12.9 353 15.2 100530 85
2005-07-07 07:55:44 51°26.945 2°54.571 13.2 360 15.2 100540 85
2005-07-07 07:55:49 51°26.959 2°54.577 13.6 346 15.2 100540 85
2005-07-07 07:55:54 51°26.973 2°54.592 13.3 1 15.1 100530 85
2005-07-07 07:55:59 51°26.991 2°54.6 12.6 356 15.1 100530 85